Weather in Kamennoye

Russia / Arkhangel'skaya Oblast'     61°46′51″N   44°48′49″E
temp.,
°C
wind,
m/s
gust,
m/s
humid.,
%
clouds,
%
prec.,
mm/h
press.,
hPa
HPBL,
m
17 may, mon
mon1700:00+12w399422 0.0 1008421
03:00+12w3792100 0.0 1010532
06:00+12wnw3784100 0.0 1012759
09:00+14nw466899 0.0 1014999
12:00+17nw4757100 0.0 10161401
15:00+19nnw35486 0.0 10171453
18:00+19n234720 0.0 10181590
21:00+13e268181 0.0 1019112
18 may, tue
tue1800:00+10ese2493100 0.0 102074
03:00+9se239699 0.0 102161
06:00+13se357588 0.0 1021259
09:00+19se345351 0.0 1021840
12:00+23se453882 0.0 10201339
15:00+24sse4536100 0.0 10191393
18:00+22sse474698 0.0 1018904
21:00+17sse31264100 0.0 1018361
19 may, wed
wed1900:00+16sse4137284 0.0 1018347
03:00+15s413755 0.0 1018311
06:00+18s4126422 0.0 1018366
09:00+23s5849100 0.0 1017611
12:00+27s573798 0.0 10171192
15:00+28s462991 0.0 10161855
18:00+27s463917 0.0 10151618
21:00+20s312615 0.0 1016334
20 may, thu
thu2000:00+18s4136512 0.0 1015355
03:00+15s311745 0.0 1016277
06:00+18s410640 0.0 1016319
09:00+24s47440 0.0 1015832
12:00+27s56320 0.0 10141755
15:00+28s57260 0.0 10132106
18:00+26s47330 0.0 10121864
21:00+19sse311560 0.0 1012260
21 may, fri
fri2100:00+17sse312625 0.0 1012343
03:00+14sse311735 0.0 1011273
06:00+17sse410610 0.0 1010361
09:00+22sse59409 0.0 10091706
12:00+25sse583194 0.0 10072756
15:00+26sse572790 0.0 10053211
18:00+21ssw595393 0.0 10051273
21:00+15sse3980100 0.9 1004242